Location: El Centro
(32.7920°N, 115.5620°W)
Time: 05:05:52
(UTC-07:00)

Amateur Radio Satellites - All Passes

Search period start: 21 August 2014 04:35
Search period end: 22 August 2014 04:35
Location: El Centro, 32.7920°N, 115.5620°W

Satellite Date Start Highest point End Downlink Frequencies (MHz)
Time Altitude Azimuth
SO-50 21 Aug 05:00:10 05:03:07 18° 109° (ESE) 05:06:07 436.795 FM
OPAL 21 Aug 05:01:08 05:05:32 32° 260° (W) 05:10:01 ?
Sapphire 21 Aug 05:10:46 05:16:10 71° 247° (WSW) 05:21:33 437.095 MHz 1200 baud AX-25 AFSK
AO-7 21 Aug 05:12:07 05:20:27 84° 107° (ESE) 05:28:44 29.400 - 29.500 MHz
Uosat F 21 Aug 05:15:44 05:20:42 68° 285° (WNW) 05:25:38 435.120 FM
TMSAT-1 21 Aug 05:25:35 05:27:06 11° 297° (WNW) 05:28:37 436.925 FM
PCSat 21 Aug 05:41:54 05:46:41 32° 252° (WSW) 05:51:27 145.825 MHz
JAS-2 21 Aug 05:48:32 05:52:13 19° 96° (E) 05:55:58 435.800 - 435.900 CW/SSB, 435.910 FM
STRAND 1 21 Aug 06:26:56 06:31:54 53° 74° (ENE) 06:36:52 ?
SO-50 21 Aug 06:39:14 06:43:21 36° 304° (WNW) 06:47:32 436.795 FM
Hamsat 21 Aug 06:54:56 06:59:14 58° 284° (WNW) 07:03:29 145.90 MHz
AO-7 21 Aug 07:07:00 07:12:13 19° 303° (WNW) 07:17:25 29.400 - 29.500 MHz
SO-67 21 Aug 07:10:15 07:13:00 22° 96° (E) 07:15:44 435.3500 MHz FM
RS-15 21 Aug 07:10:55 07:16:08 15° 100° (E) 07:21:16 29.354 - 29.394 USB, Beacon 29.352 USB
JAS-2 21 Aug 07:32:42 07:37:25 37° 288° (WNW) 07:42:17 435.800 - 435.900 CW/SSB, 435.910 FM
UOSAT-12 21 Aug 07:56:38 08:01:13 82° 298° (WNW) 08:05:54 437.025 FM, 437.400 FM
STRAND 1 21 Aug 08:08:47 08:11:20 14° 267° (W) 08:13:53 ?
HO-68 21 Aug 08:43:30 08:49:07 25° 96° (E) 08:54:41 435.675 MHz FM
SO-67 21 Aug 08:43:49 08:45:50 15° 289° (WNW) 08:47:50 435.3500 MHz FM
KITSAT 1 21 Aug 08:48:32 08:51:56 13° 39° (NE) 08:55:19 435.175 FM
RS-15 21 Aug 09:15:36 09:26:48 83° 115° (ESE) 09:37:45 29.354 - 29.394 USB, Beacon 29.352 USB
UKube-1 21 Aug 09:30:22 09:34:09 29° 98° (E) 09:37:55 145.840 MHz, 145.915 MHz
Oscar 11 21 Aug 09:47:36 09:51:21 28° 97° (E) 09:55:05 145.825 FM, Beacon 2401.500 USB
Saudisat 1A 21 Aug 09:58:18 10:02:23 36° 57° (ENE) 10:06:26 436.775 MHz
HO-68 21 Aug 10:30:08 10:36:59 52° 290° (WNW) 10:43:51 435.675 MHz FM
KITSAT 1 21 Aug 10:41:01 10:49:02 63° 61° (ENE) 10:56:58 435.175 FM
UKube-1 21 Aug 11:07:04 11:10:07 19° 291° (WNW) 11:13:11 145.840 MHz, 145.915 MHz
FUNcube-1 21 Aug 11:20:08 11:24:32 62° 284° (WNW) 11:29:00 145.950 - 145.970 MHz USB
Oscar 11 21 Aug 11:24:08 11:27:20 20° 290° (WNW) 11:30:31 145.825 FM, Beacon 2401.500 USB
RS-15 21 Aug 11:31:40 11:40:23 26° 317° (NW) 11:49:07 29.354 - 29.394 USB, Beacon 29.352 USB
Saudisat 1A 21 Aug 11:38:46 11:41:39 17° 251° (WSW) 11:44:32 436.775 MHz
Oscar 19 21 Aug 12:18:54 12:21:29 14° 65° (ENE) 12:24:04 437.125 CW, 437.150 USB
KITSAT 1 21 Aug 12:37:47 12:43:44 23° 256° (WSW) 12:49:40 435.175 FM
Uribyol 2 21 Aug 12:42:39 12:43:16 10° 63° (ENE) 12:43:53 436.500 FM
Oscar 16 21 Aug 12:49:46 12:54:13 31° 70° (ENE) 12:58:42 437.025 USB, Beacon 2401.1428
AO-27 21 Aug 12:54:08 12:56:42 14° 65° (ENE) 12:59:16 436.795 MHz FM
JAS-1B 21 Aug 12:57:18 13:04:59 27° 63° (ENE) 13:12:25 435.800 - 435.900 CW/SSB
ISS 21 Aug 13:09:00 13:12:07 39° 131° (SE) 13:15:14 145.800 FM
Oscar 19 21 Aug 13:55:14 14:00:16 58° 259° (W) 14:05:21 437.125 CW, 437.150 USB
Gurwin Techsat 1B 21 Aug 14:01:35 14:06:01 28° 69° (ENE) 14:10:27 435.225 FM
ITAMSAT 1 21 Aug 14:04:13 14:09:22 73° 75° (ENE) 14:14:32 435.822 SSB
AO-Echo 21 Aug 14:04:17 14:09:31 80° 76° (ENE) 14:14:37 ?
Uribyol 2 21 Aug 14:16:52 14:22:01 79° 257° (WSW) 14:27:12 436.500 FM
AO-7 21 Aug 14:18:51 14:22:38 14° 54° (NE) 14:26:24 29.400 - 29.500 MHz
Oscar 16 21 Aug 14:29:21 14:33:30 25° 264° (W) 14:37:42 437.025 USB, Beacon 2401.1428
AO-27 21 Aug 14:30:33 14:35:40 59° 259° (W) 14:40:47 436.795 MHz FM
JAS-1B 21 Aug 14:44:45 14:54:34 73° 257° (WSW) 15:04:14 435.800 - 435.900 CW/SSB
ISS 21 Aug 14:46:38 14:48:57 17° 326° (NNW) 14:51:17 145.800 FM
TMSAT-1 21 Aug 14:58:52 15:04:08 75° 76° (ENE) 15:09:26 436.925 FM
MaSat-1 21 Aug 15:00:52 15:05:16 58° 108° (ESE) 15:10:12 437.345 MHz
PANSAT 21 Aug 15:03:20 15:05:09 13° 157° (SSE) 15:06:57 not established
SO-50 21 Aug 15:14:27 15:19:12 58° 60° (ENE) 15:23:58 436.795 FM
Gurwin Techsat 1B 21 Aug 15:41:16 15:45:50 29° 263° (W) 15:50:26 435.225 FM
AO-7 21 Aug 16:05:43 16:14:03 77° 71° (ENE) 16:22:23 29.400 - 29.500 MHz
RS-15 21 Aug 16:11:51 16:18:25 17° 32° (NNE) 16:25:04 29.354 - 29.394 USB, Beacon 29.352 USB
Uosat F 21 Aug 16:24:25 16:29:27 80° 257° (WSW) 16:34:29 435.120 FM
UOSAT-12 21 Aug 16:31:00 16:34:58 26° 54° (NE) 16:38:53 437.025 FM, 437.400 FM
MaSat-1 21 Aug 16:40:14 16:42:52 15° 306° (NW) 16:45:38 437.345 MHz
PANSAT 21 Aug 16:41:24 16:44:50 32° 168° (SSE) 16:48:17 not established
JAS-1B 21 Aug 16:42:02 16:46:01 13° 272° (W) 16:50:00 435.800 - 435.900 CW/SSB
SO-50 21 Aug 16:57:12 16:59:15 13° 253° (WSW) 17:01:19 436.795 FM
OPAL 21 Aug 17:14:36 17:19:50 84° 286° (WNW) 17:25:02 ?
JAS-2 21 Aug 17:38:37 17:45:18 53° 74° (ENE) 17:51:14 435.800 - 435.900 CW/SSB, 435.910 FM
Hamsat 21 Aug 17:43:38 17:47:46 55° 75° (ENE) 17:51:58 145.90 MHz
AO-7 21 Aug 18:02:07 18:07:25 18° 266° (W) 18:12:44 29.400 - 29.500 MHz
Sapphire 21 Aug 18:05:40 18:10:13 29° 107° (ESE) 18:14:48 437.095 MHz 1200 baud AX-25 AFSK
UOSAT-12 21 Aug 18:11:02 18:15:02 28° 249° (WSW) 18:18:58 437.025 FM, 437.400 FM
PANSAT 21 Aug 18:21:05 18:24:44 43° 181° (S) 18:28:24 not established
RS-15 21 Aug 18:22:30 18:33:32 63° 58° (ENE) 18:44:58 29.354 - 29.394 USB, Beacon 29.352 USB
PCSat 21 Aug 18:35:20 18:40:38 62° 112° (ESE) 18:45:59 145.825 MHz
STRAND 1 21 Aug 18:42:36 18:46:49 26° 97° (E) 18:51:01 ?
SO-67 21 Aug 19:11:02 19:14:30 86° 78° (ENE) 19:17:58 435.3500 MHz FM
HO-68 21 Aug 19:11:25 19:13:36 12° 57° (ENE) 19:15:46 435.675 MHz FM
JAS-2 21 Aug 19:25:24 19:30:24 21° 264° (W) 19:35:03 435.800 - 435.900 CW/SSB, 435.910 FM
Oscar 10/S400 21 Aug 19:29:59 19:48:42 65° 159° (SSE) 20:48:22 145.825 - 145.975 CW/USB, Beacon 145.810 USB
Sapphire 21 Aug 19:48:45 19:53:30 31° 302° (WNW) 19:58:17 437.095 MHz 1200 baud AX-25 AFSK
PANSAT 21 Aug 20:01:16 20:04:37 29° 194° (SSW) 20:07:58 not established
PCSat 21 Aug 20:21:09 20:24:27 16° 308° (NW) 20:27:47 145.825 MHz
STRAND 1 21 Aug 20:21:34 20:25:55 29° 290° (WNW) 20:30:15 ?
UKube-1 21 Aug 20:22:53 20:25:26 16° 68° (ENE) 20:28:00 145.840 MHz, 145.915 MHz
RS-15 21 Aug 20:35:53 20:45:09 31° 255° (WSW) 20:54:46 29.354 - 29.394 USB, Beacon 29.352 USB
Oscar 11 21 Aug 20:40:05 20:42:07 13° 67° (ENE) 20:44:10 145.825 FM, Beacon 2401.500 USB
HO-68 21 Aug 20:53:00 21:00:07 77° 73° (ENE) 21:07:16 435.675 MHz FM
ISS 21 Aug 21:17:39 21:20:59 73° 44° (NE) 21:24:18 145.800 FM
PANSAT 21 Aug 21:43:20 21:44:16 11° 204° (SSW) 21:45:12 not established
UKube-1 21 Aug 21:57:17 22:01:18 37° 261° (W) 22:05:20 145.840 MHz, 145.915 MHz
FUNcube-1 21 Aug 22:12:22 22:16:25 58° 76° (ENE) 22:20:31 145.950 - 145.970 MHz USB
Oscar 11 21 Aug 22:13:48 22:17:53 42° 261° (W) 22:22:01 145.825 FM, Beacon 2401.500 USB
HO-68 21 Aug 22:44:32 22:48:21 15° 267° (W) 22:52:11 435.675 MHz FM
KITSAT 1 21 Aug 23:15:21 23:17:34 11° 100° (E) 23:19:46 435.175 FM
Saudisat 1A 22 Aug 00:00:57 00:04:38 27° 111° (ESE) 00:08:20 436.775 MHz
MaSat-1 22 Aug 01:00:14 01:04:51 52° 64° (ENE) 01:08:50 437.345 MHz
KITSAT 1 22 Aug 01:03:37 01:11:42 80° 114° (ESE) 01:19:48 435.175 FM
Oscar 16 22 Aug 01:06:58 01:10:02 16° 94° (E) 01:13:04 437.025 USB, Beacon 2401.1428
Saudisat 1A 22 Aug 01:40:31 01:44:08 25° 306° (NW) 01:47:46 436.775 MHz
Oscar 19 22 Aug 02:11:15 02:16:27 73° 102° (ESE) 02:21:38 437.125 CW, 437.150 USB
AO-Echo 22 Aug 02:16:39 02:20:55 34° 98° (E) 02:25:10 ?
ITAMSAT 1 22 Aug 02:21:55 02:26:42 37° 99° (E) 02:31:27 435.822 SSB
Gurwin Techsat 1B 22 Aug 02:23:11 02:26:17 16° 93° (E) 02:29:22 435.225 FM
Uribyol 2 22 Aug 02:34:11 02:39:16 54° 101° (E) 02:44:19 436.500 FM
JAS-1B 22 Aug 02:38:47 02:45:32 44° 97° (E) 02:51:18 435.800 - 435.900 CW/SSB
MaSat-1 22 Aug 02:40:24 02:41:08 10° 263° (W) 02:41:52 437.345 MHz
Oscar 16 22 Aug 02:44:35 02:49:35 49° 287° (WNW) 02:54:33 437.025 USB, Beacon 2401.1428
AO-27 22 Aug 02:48:02 02:53:13 73° 102° (ESE) 02:58:22 436.795 MHz FM
OPAL 22 Aug 02:51:27 02:52:07 10° 61° (ENE) 02:52:46 ?
Sapphire 22 Aug 03:00:39 03:01:33 10° 48° (NE) 03:02:26 437.095 MHz 1200 baud AX-25 AFSK
KITSAT 1 22 Aug 03:02:03 03:07:55 21° 313° (NW) 03:13:50 435.175 FM
TMSAT-1 22 Aug 03:19:28 03:24:30 43° 99° (E) 03:29:30 436.925 FM
PCSat 22 Aug 03:28:37 03:32:37 21° 54° (NE) 03:36:36 145.825 MHz
Oscar 19 22 Aug 03:53:36 03:55:06 11° 297° (WNW) 03:56:37 437.125 CW, 437.150 USB
AO-Echo 22 Aug 03:56:11 03:59:25 19° 292° (WNW) 04:02:39 ?
Gurwin Techsat 1B 22 Aug 04:01:20 04:06:27 51° 287° (WNW) 04:11:33 435.225 FM
ITAMSAT 1 22 Aug 04:02:04 04:05:54 21° 292° (WNW) 04:09:43 435.822 SSB
AO-7 22 Aug 04:13:04 04:20:22 34° 99° (E) 04:27:36 29.400 - 29.500 MHz
Uribyol 2 22 Aug 04:15:22 04:18:14 15° 295° (WNW) 04:21:06 436.500 FM
OPAL 22 Aug 04:25:17 04:30:15 78° 255° (WSW) 04:35:20 ?
AO-27 22 Aug 04:30:32 04:32:03 11° 297° (WNW) 04:33:35 436.795 MHz FM
